Clinton, OK

9:27 PM CDT on April 24, 2017 (GMT -0500)
Clinton Municipal

Weather History for KCLK - January, 2013

Change the Weather History Date:

Monday, January 28, 2013

  Actual Average (KCSM) Record (KCSM)
Temperature  
Mean Temperature 58 °F -  
Max Temperature 73 °F 48 °F 75 °F (2008)
Min Temperature 44 °F 28 °F 8 °F (2009)
Degree Days  
Heating Degree Days 6    
Growing Degree Days 8 (Base 50)    
Moisture  
Dew Point 48 °F    
Average Humidity 67    
Maximum Humidity 87    
Minimum Humidity 44    
Precipitation  
Precipitation 0.00 in - - ()
Sea Level Pressure  
Sea Level Pressure 29.80 in    
Wind  
Wind Speed 11 mph (South)    
Max Wind Speed 25 mph    
Max Gust Speed 33 mph    
Visibility 10 miles    
Events      
Averages and records for this station are not official NWS values.
T = Trace of Precipitation, MM = Missing Value Source: NWS Daily Summary

Daily Weather History Graph

Daily Weather History Graph

Search for Another Location

Airport or City:

Trip Planner

Search our weather history database for the weather conditions in past years. The results will help you decide how hot, cold, wet, or windy it might be!

Date:

Astronomy

Jan. 28, 2013 Rise Set
Actual Time 7:38 AM CST 5:59 PM CST
Civil Twilight 7:11 AM CST 6:26 PM CST
Nautical Twilight 6:40 AM CST 6:57 PM CST
Astronomical Twilight 6:10 AM CST 7:27 PM CST
Moon 7:50 PM CST (1/28) 8:09 AM CST (1/28)
Length of Visible Light 11h 15m
Length of Day
10h 21m
Full, 98% of the Moon is Illuminated
Jan 28
Full
Feb 3
Last Quarter
Feb 10
New
Feb 17
First Quarter
Feb 25
Full

Hourly Weather History & Observations

Time (CST) Temp. Windchill Dew Point Humidity Pressure Visibility Wind Dir Wind Speed Gust Speed Precip Events Conditions
12:15 AM 53.6 °F - 46.4 °F 77% 29.83 in 10.0 mi SSE 10.4 mph - N/A   Clear
12:35 AM 53.6 °F - 46.4 °F 77% 29.84 in 10.0 mi SSE 10.4 mph - N/A   Clear
12:55 AM 51.8 °F - 46.4 °F 82% 29.84 in 10.0 mi Calm Calm - N/A   Clear
1:15 AM 53.6 °F - 46.4 °F 77% 29.84 in 10.0 mi South 9.2 mph - N/A   Clear
1:35 AM 53.6 °F - 46.4 °F 77% 29.84 in 10.0 mi South 9.2 mph - N/A   Clear
1:55 AM 51.8 °F - 46.4 °F 82% 29.84 in 10.0 mi South 8.1 mph - N/A   Clear
2:15 AM 51.8 °F - 44.6 °F 76% 29.84 in 10.0 mi South 10.4 mph - N/A   Clear
2:35 AM 51.8 °F - 44.6 °F 76% 29.84 in 10.0 mi SSE 8.1 mph - N/A   Clear
2:55 AM 51.8 °F - 44.6 °F 76% 29.85 in 10.0 mi South 9.2 mph - N/A   Clear
3:15 AM 51.8 °F - 44.6 °F 76% 29.85 in 10.0 mi South 8.1 mph - N/A   Clear
3:35 AM 51.8 °F - 42.8 °F 71% 29.85 in 10.0 mi South 5.8 mph - N/A   Clear
4:15 AM 50.0 °F - 41.0 °F 71% 29.85 in 10.0 mi South 5.8 mph - N/A   Clear
4:35 AM 48.2 °F - 42.8 °F 82% 29.85 in 10.0 mi SSE 3.5 mph - N/A   Clear
4:55 AM 46.4 °F 42.9 °F 41.0 °F 81% 29.86 in 10.0 mi South 6.9 mph - N/A   Clear
5:15 AM 50.0 °F - 41.0 °F 71% 29.85 in 10.0 mi South 10.4 mph - N/A   Clear
5:35 AM 48.2 °F - 41.0 °F 76% 29.86 in 10.0 mi South 8.1 mph - N/A   Clear
6:15 AM 46.4 °F 41.5 °F 39.2 °F 76% 29.86 in 10.0 mi South 10.4 mph - N/A   Clear
6:35 AM 46.4 °F 42.9 °F 39.2 °F 76% 29.86 in 10.0 mi SSE 6.9 mph - N/A   Clear
6:55 AM 46.4 °F 42.9 °F 41.0 °F 81% 29.87 in 10.0 mi SSE 6.9 mph - N/A   Clear
7:15 AM 46.4 °F 41.9 °F 41.0 °F 81% 29.88 in 10.0 mi SSE 9.2 mph - N/A   Clear
7:35 AM 46.4 °F 43.5 °F 41.0 °F 81% 29.88 in 10.0 mi SE 5.8 mph - N/A   Clear
7:55 AM 44.6 °F 40.7 °F 41.0 °F 87% 29.88 in 10.0 mi SSE 6.9 mph - N/A   Clear
8:15 AM 46.4 °F 42.9 °F 41.0 °F 81% 29.88 in 10.0 mi SSE 6.9 mph - N/A   Clear
8:35 AM 48.2 °F - 42.8 °F 82% 29.89 in 10.0 mi South 9.2 mph - N/A   Clear
8:55 AM 50.0 °F - 44.6 °F 82% 29.90 in 10.0 mi SSE 9.2 mph - N/A   Clear
9:15 AM 53.6 °F - 46.4 °F 77% 29.88 in 10.0 mi South 12.7 mph - N/A   Clear
9:35 AM 53.6 °F - 46.4 °F 77% 29.88 in 10.0 mi South 11.5 mph - N/A   Clear
9:55 AM 55.4 °F - 48.2 °F 77% 29.88 in 10.0 mi SSE 5.8 mph - N/A   Clear
10:15 AM 60.8 °F - 48.2 °F 63% 29.88 in 10.0 mi SSW 11.5 mph - N/A   Clear
10:35 AM 62.6 °F - 50.0 °F 63% 29.87 in 10.0 mi South 17.3 mph 24.2 mph N/A   Clear
10:55 AM 62.6 °F - 51.8 °F 68% 29.87 in 10.0 mi South 23.0 mph 26.5 mph N/A   Clear
11:15 AM 64.4 °F - 53.6 °F 68% 29.86 in 10.0 mi South 17.3 mph 24.2 mph N/A   Clear
11:35 AM 66.2 °F - 53.6 °F 64% 29.86 in 10.0 mi South 18.4 mph - N/A   Clear
12:15 PM 68.0 °F - 53.6 °F 60% 29.84 in 10.0 mi SSW 19.6 mph 24.2 mph N/A   Scattered Clouds
12:35 PM 68.0 °F - 53.6 °F 60% 29.83 in 10.0 mi SSW 19.6 mph 29.9 mph N/A   Scattered Clouds
12:55 PM 69.8 °F - 53.6 °F 56% 29.81 in 10.0 mi SSW 24.2 mph 28.8 mph N/A   Mostly Cloudy
1:15 PM 68.0 °F - 53.6 °F 60% 29.80 in 10.0 mi SSW 19.6 mph 31.1 mph N/A   Mostly Cloudy
1:35 PM 69.8 °F - 55.4 °F 60% 29.78 in 10.0 mi South 23.0 mph 31.1 mph N/A   Mostly Cloudy
1:55 PM 69.8 °F - 55.4 °F 60% 29.77 in 10.0 mi SSW 25.3 mph 32.2 mph N/A   Mostly Cloudy
2:15 PM 69.8 °F - 53.6 °F 56% 29.76 in 10.0 mi South 23.0 mph 33.4 mph N/A   Scattered Clouds
2:35 PM 69.8 °F - 53.6 °F 56% 29.75 in 10.0 mi South 23.0 mph 27.6 mph N/A   Scattered Clouds
2:55 PM 71.6 °F - 53.6 °F 53% 29.74 in 10.0 mi SSW 24.2 mph 31.1 mph N/A   Scattered Clouds
3:15 PM 71.6 °F - 53.6 °F 53% 29.73 in 10.0 mi South 20.7 mph 32.2 mph N/A   Scattered Clouds
3:35 PM 71.6 °F - 53.6 °F 53% 29.73 in 10.0 mi South 21.9 mph 31.1 mph N/A   Scattered Clouds
4:15 PM 73.4 °F - 51.8 °F 47% 29.72 in 10.0 mi South 20.7 mph 27.6 mph N/A   Scattered Clouds
4:35 PM 73.4 °F - 50.0 °F 44% 29.71 in 10.0 mi South 18.4 mph 28.8 mph N/A   Clear
5:15 PM 71.6 °F - 50.0 °F 46% 29.71 in 10.0 mi South 19.6 mph 26.5 mph N/A   Clear
5:35 PM 71.6 °F - 50.0 °F 46% 29.70 in 10.0 mi South 16.1 mph 24.2 mph N/A   Clear
6:15 PM 69.8 °F - 48.2 °F 46% 29.71 in 10.0 mi South 11.5 mph - N/A   Clear
6:35 PM 68.0 °F - 46.4 °F 46% 29.71 in 10.0 mi South 9.2 mph - N/A   Clear
6:55 PM 66.2 °F - 46.4 °F 49% 29.71 in 10.0 mi South 9.2 mph - N/A   Clear
7:15 PM 64.4 °F - 46.4 °F 52% 29.71 in 10.0 mi SSE 10.4 mph - N/A   Clear
7:35 PM 64.4 °F - 48.2 °F 56% 29.71 in 10.0 mi SSE 9.2 mph - N/A   Clear
8:15 PM 62.6 °F - 50.0 °F 63% 29.71 in 10.0 mi SSE 9.2 mph - N/A   Clear
8:35 PM 62.6 °F - 50.0 °F 63% 29.72 in 10.0 mi SE 9.2 mph - N/A   Clear
8:55 PM 62.6 °F - 50.0 °F 63% 29.72 in 10.0 mi SSE 9.2 mph - N/A   Clear
9:15 PM 60.8 °F - 50.0 °F 68% 29.72 in 10.0 mi SSE 10.4 mph - N/A   Clear
9:35 PM 60.8 °F - 50.0 °F 68% 29.72 in 10.0 mi SSE 11.5 mph - N/A   Clear
9:55 PM 60.8 °F - 48.2 °F 63% 29.71 in 10.0 mi SSE 10.4 mph - N/A   Clear
10:15 PM 60.8 °F - 48.2 °F 63% 29.71 in 10.0 mi SSE 10.4 mph - N/A   Clear
10:35 PM 60.8 °F - 48.2 °F 63% 29.71 in 10.0 mi SSE 8.1 mph - N/A   Clear
10:55 PM 60.8 °F - 48.2 °F 63% 29.72 in 10.0 mi SSE 8.1 mph - N/A   Clear
11:15 PM 59.0 °F - 48.2 °F 67% 29.72 in 10.0 mi SSE 8.1 mph - N/A   Clear
11:35 PM 59.0 °F - 46.4 °F 63% 29.72 in 10.0 mi SSE 8.1 mph - N/A   Clear